FENGYUN 1C DEB, 36197

Orbit data source: Space-Track

FENGYUN 1C DEB, 36197 is space debris in SSO originally from a launch on Mon, 10 May 1999 UTC launched from the Taiyaun Space Center, China (TSC). Fengyun 1C debris stems from the Chinese weather satellite Fengyun-1C, which was intentionally destroyed by a Chinese anti-satellite missile in 2007. This event dramatically increased the amount of space debris, with thousands of trackable fragments posing hazards to satellites and human spaceflight. The Fengyun 1C debris cloud has become a focal point in discussions about space sustainability and the need for international regulations to prevent the creation of new debris.

Loading next visibility...
Identifier
36197, 1999-025DTW
Orbit
SSO
Country
Flag of CNCN / PRC
Related business
Manufacturer
Unknown
Mission
Spacecraft
Bus & Motor
Unknown
Mass
Unknown
Launch date (UTC)
1999-05-10 (27 years ago)
Launch vehicle
Unknown
Launch site
Taiyaun Space Center, China (TSC)
Object type
Payload
Rocket body
Debris
Shape & HBR
Unknown shape, 1.1 m
Radar Cross Section
Small (<0.1 m²)

Expand to show TLE details & history
Last TLE update: 2 weeks ago

TLE from 2 weeks ago
0 FENGYUN 1C DEB
1 36197U 99025DTW 26241.00207939  .00002587  00000-0  10094-2 0  9994
2 36197  98.6920 315.0916 0052182 136.1483 224.3860 14.29757025653428
Epoch: 2026-08-29T00:02Z
TLE epoch observation values (Epoch: 2026-08-29T00:02:59.659Z)
Latitude
0.00003°
Longitude
-22.87526°
Altitude
822.313 km
Speed
7.428 km/s
True Right ascension
21h 00m 21s
True Declination
0° 00' 00"
Sunlit
Object was in full shadow at epoch
Visualization orbit readout
Latitude
Unknown
Longitude
Unknown
Altitude
Unknown
Speed
Unknown
Apparent Right ascension
Unknown
Apparent Declination
Unknown
Sunlit
N/A
Visualization observer readout
Local Sidereal Time
19:49:18
Azimuth
Unknown
Elevation
Unknown
Doppler factor
Unknown
Orbital elements
Apogee altitude
827.091 km
Perigee altitude
752.285 km
Semi-major axis
7,167.825 km
Eccentricity
0.00522
Inclination
98.692°
RAAN
315.0916°
Arg. of periapsis
136.1483°
True anomaly
223.96968°
Mean anomaly
224.386°
Eccentric anomaly
224.17764°
Mean motion
3.57653 °/min
Orbital period
100.66 mins
BSTAR
0.0010094
Loading maneuver chart data...
Computing Atmospheric mass density...

Documentation

Showing up to 5 results
|